Content
SEND FEEDBACK

Daily
Averages
Monthly
Summary
United States of America

MISSION CANYON, CALIFORNIA


Home > North America > United States > California
Elevation: 1030 feet     Latitude: 34 33N     Longitude: 119 47W

WEATHER
 
SELECT A DAY
Number of Records: 192,698;   Date Range: 1/1/95 - 9/29/14
 
SHARE

PRINT THIS DATA

[ ← Previous Day ]
WEATHER ALMANAC - JANUARY 23, 2013
[ Next Day → ]
[ °C ]   °F
Weather ElementAverageHighLow
Temperature56.6 °F66 °F (1:53 pm)48 °F (7:53 am)
Dewpoint40.3 °F48 °F (6:53 pm)34 °F (12:53 pm)
Humidity56.3 %77 % (11:53 pm)33 % (12:53 pm)
Barometer30.03 in30.08 in (4:53 pm)30.01 in (4:53 am)
Wind Speed2.9 mph8.1 mph (1:53 pm)
Weather ElementAverage
Visibility9.6 mi
Wind DirectionENE (66.1 °)

Weather ElementTotal
Precipitation0.01 in
Heating Degree Days8 (Base 65)
Growing Degree Days7 (Base 50)
Averaged from 23 records on January 23, 2013
WEATHER CONDITIONS BREAKOUT
WIND DIRECTION BREAKOUT
WEATHER BY HOUR - JANUARY 23, 2013
[ °C ]   °F
Local TimeTemperatureDewpointHumidityBarometerVisibilityWind DirectionWind SpeedGust SpeedPrecipitationEventsConditions
1:53 AM48.9 °F36.0 °F61 %30.03 in10.0 miCalmClear
2:53 AM48.9 °F37.9 °F66 %30.03 in10.0 miCalmClear
3:53 AM50.0 °F37.0 °F61 %30.02 in10.0 miCalmClear
4:53 AM50.0 °F35.1 °F57 %30.01 in10.0 miCalmClear
5:53 AM50.0 °F36.0 °F59 %30.02 in10.0 miCalmMostly Cloudy
6:53 AM48.9 °F35.1 °F59 %30.01 in10.0 miCalmMostly Cloudy
7:53 AM48.0 °F36.0 °F63 %30.02 in10.0 miCalmOvercast
8:53 AM57.0 °F39.0 °F51 %30.03 in8.0 miCalmOvercast
9:53 AM57.0 °F43.0 °F59 %30.03 in8.0 miCalmOvercast
10:53 AM64.9 °F39.0 °F39 %30.01 in10.0 miEast (100°)3.5 mphOvercast
11:53 AM62.1 °F37.0 °F39 %30.02 in10.0 miCalmOvercast
12:53 PM64.0 °F34.0 °F33 %30.01 in10.0 miCalmOvercast
1:53 PM66.0 °F37.9 °F36 %30.01 in10.0 miSE (140°)8.1 mphClear
2:53 PM64.0 °F39.0 °F40 %30.03 in10.0 miWSW (250°)5.8 mphOvercast
3:53 PM64.0 °F37.9 °F38 %30.03 in10.0 miSouth (190°)4.6 mphOvercast
4:53 PM61.0 °F39.9 °F46 %30.08 in10.0 miSW (230°)5.8 mphOvercast
5:53 PM59.0 °F42.1 °F53 %30.03 in10.0 miWest (280°)5.8 mphOvercast
6:53 PM57.9 °F48.0 °F70 %30.05 in10.0 miVariable3.5 mphOvercast
7:53 PM57.0 °F46.9 °F69 %30.04 in9.0 miNE (50°)5.8 mph0.00 inOvercast
8:53 PM57.0 °F48.0 °F72 %30.05 in9.0 miENE (70°)6.9 mph0.00 inOvercast
9:53 PM55.9 °F48.0 °F75 %30.06 in7.0 miENE (70°)4.6 mph0.00 inRainLight Rain
10:53 PM55.9 °F46.9 °F72 %30.08 in9.0 miENE (70°)6.9 mph0.01 inOvercast
11:53 PM55.0 °F48.0 °F77 %30.08 in10.0 miENE (70°)5.8 mphOvercast
Hourly data recorded from KSBA, located miles away from Mission Canyon, California







STORIES FROM OUR PARTNERS